CW1780 Weather Reports


time (UTC)temp
C
wind
direction
speed
KPH
gust
KPH
rain 1hr
cm
rain 24hr
cm
rain mn
cm
humidity
%
barometer
mb
20260503010024 7 88 0.0 1.6 0.00 0.00 0.00 57 1014.0
20260503005024 7 101 0.0 8.0 0.00 0.00 0.00 56 1013.9
20260503004003 7 33 0.0 4.8 0.00 0.00 0.00 57 1013.9
20260503003003 7 7 0.0 6.4 0.00 0.00 0.00 57 1013.9
20260503002003 7 151 0.0 6.4 0.00 0.00 0.00 55 1013.6
20260503001003 7 65 0.0 8.0 0.00 0.00 0.00 55 1013.6
20260503000004 8 76 0.0 8.0 0.00 0.00 0.00 53 1013.5
20260502235003 8 70 1.6 4.8 0.00 0.00 0.00 51 1013.5
20260502234003 8 75 1.6 12.9 0.00 0.00 0.00 50 1013.4
20260502233003 8 63 0.0 14.5 0.00 0.00 0.00 49 1013.4
20260502232024 9 83 1.6 12.9 0.00 0.00 0.00 50 1013.3
20260502231003 10 67 1.6 17.7 0.00 0.00 0.00 49 1013.3
20260502230003 9 70 1.6 11.3 0.00 0.00 0.00 48 1013.2
20260502225003 9 45 1.6 11.3 0.00 0.00 0.00 50 1013.1
20260502224003 9 88 1.6 9.7 0.00 0.00 0.00 48 1013.0
20260502223003 10 59 1.6 12.9 0.00 0.00 0.00 48 1013.0
20260502222024 10 89 1.6 6.4 0.00 0.00 0.00 50 1013.0
20260502221003 10 50 1.6 9.7 0.00 0.00 0.00 48 1012.9
20260502220003 10 120 0.0 12.9 0.00 0.00 0.00 46 1012.9
20260502215003 10 87 1.6 8.0 0.00 0.00 0.00 47 1012.6
20260502214003 10 52 1.6 9.7 0.00 0.00 0.00 47 1012.6
20260502213003 10 66 1.6 14.5 0.00 0.00 0.00 49 1012.4
20260502212003 10 66 1.6 9.7 0.00 0.00 0.00 46 1012.3
20260502211003 11 69 3.2 12.9 0.00 0.00 0.00 45 1012.3
20260502210003 12 62 1.6 11.3 0.00 0.00 0.00 42 1012.3
20260502205003 12 21 3.2 9.7 0.00 0.00 0.00 45 1012.1
20260502204003 11 69 3.2 12.9 0.00 0.00 0.00 46 1012.3
20260502203003 11 53 1.6 12.9 0.00 0.00 0.00 47 1012.2
20260502202003 11 51 1.6 9.7 0.00 0.00 0.00 45 1012.3
20260502201003 11 59 3.2 12.9 0.00 0.00 0.00 46 1012.3
20260502200003 12 48 3.2 14.5 0.00 0.00 0.00 43 1012.4
20260502195003 11 72 1.6 16.1 0.00 0.00 0.00 45 1012.3
20260502194003 11 76 1.6 12.9 0.00 0.00 0.00 47 1012.4
20260502193003 12 71 3.2 9.7 0.00 0.00 0.00 45 1012.2
20260502192003 13 54 1.6 16.1 0.00 0.00 0.00 43 1012.0
20260502191003 12 77 3.2 14.5 0.00 0.00 0.00 44 1011.9
20260502190004 13 60 3.2 16.1 0.00 0.00 0.00 40 1012.0
20260502185003 13 47 1.6 11.3 0.00 0.00 0.00 50 1012.0
20260502184024 13 84 1.6 11.3 0.00 0.00 0.00 43 1012.2
20260502182003 13 76 1.6 9.7 0.00 0.00 0.00 41 1012.2
20260502181003 13 11 1.6 4.8 0.00 0.00 0.00 45 1012.2
20260502164003 11 75 1.6 8.0 0.00 0.00 0.00 43 1013.1
20260502163003 11 65 1.6 12.9 0.00 0.00 0.00 48 1013.2
20260502162003 11 54 0.0 6.4 0.00 0.00 0.00 50 1013.2
20260502161003 11 340 0.0 4.8 0.00 0.00 0.00 47 1013.5
20260502152024 10 27 1.6 4.8 0.00 0.00 0.00 49 1014.0
20260502151003 9 60 1.6 11.3 0.00 0.00 0.00 54 1014.0
20260502123028 5 121 0.0 4.8 0.00 0.00 0.00 62 1013.9
20260502122003 6 77 0.0 8.0 0.00 0.00 0.00 63 1014.0
20260502121003 6 83 0.0 3.2 0.00 0.00 0.00 65 1013.8
20260502115003 5 88 0.0 8.0 0.00 0.00 0.00 63 1014.0
20260502114009 5 131 0.0 1.6 0.00 0.00 0.00 61 1014.1
20260502113008 5 249 0.0 4.8 0.00 0.00 0.00 62 1013.8
20260502112009 5 79 0.0 1.6 0.00 0.00 0.00 61 1013.7
20260502111009 5 95 0.0 3.2 0.00 0.00 0.00 62 1013.6
20260502110008 5 0 0.0 0.0 0.00 0.00 0.00 62 1013.4
20260502105009 5 108 0.0 1.6 0.00 0.00 0.00 61 1013.3
20260502104008 5 100 0.0 3.2 0.00 0.00 0.00 61 1013.3
20260502103008 5 0 0.0 0.0 0.00 0.00 0.00 61 1013.5
20260502102030 6 79 0.0 3.2 0.00 0.00 0.00 61 1013.4
20260502101008 6 84 0.0 8.0 0.00 0.00 0.00 61 1013.6
20260502091024 7 0 0.0 0.0 0.00 0.00 0.00 69 1014.1
20260502071003 8 104 0.0 4.8 0.00 0.00 0.00 73 1013.1
20260502070003 8 64 0.0 4.8 0.00 0.00 0.00 72 1013.3
20260502065003 8 10 0.0 3.2 0.00 0.00 0.00 71 1013.4
20260502064024 8 87 0.0 4.8 0.00 0.00 0.00 71 1013.5
20260502063003 8 59 0.0 1.6 0.00 0.00 0.00 71 1013.6
20260502062003 8 59 0.0 1.6 0.00 0.00 0.00 71 1013.7
20260502061003 8 0 0.0 0.0 0.00 0.00 0.00 72 1013.9
20260502060003 8 59 0.0 1.6 0.00 0.00 0.00 71 1013.9
20260502055024 8 59 0.0 1.6 0.00 0.00 0.00 71 1013.9
20260502054003 8 61 0.0 1.6 0.00 0.00 0.00 71 1013.9
20260502053003 8 60 0.0 1.6 0.00 0.00 0.00 70 1014.0
20260502052003 9 61 0.0 1.6 0.00 0.00 0.00 70 1013.6
20260502051003 9 58 0.0 8.0 0.00 0.00 0.00 70 1013.6
20260502050003 9 0 0.0 0.0 0.00 0.00 0.00 69 1013.6
20260502045003 9 326 0.0 1.6 0.00 0.00 0.00 69 1013.5
20260502044003 9 0 0.0 0.0 0.00 0.00 0.00 69 1013.5
20260502043024 9 329 0.0 4.8 0.00 0.00 0.00 69 1013.5
20260502042003 10 0 0.0 0.0 0.00 0.00 0.00 68 1013.6
20260502041003 10 329 0.0 1.6 0.00 0.00 0.00 68 1013.4
20260502040004 10 299 0.0 6.4 0.00 0.00 0.00 69 1013.6
20260502035024 10 0 0.0 0.0 0.00 0.00 0.00 71 1013.6
20260502034003 10 165 0.0 3.2 0.00 0.00 0.00 70 1013.5
20260502033003 10 167 0.0 1.6 0.00 0.00 0.00 70 1013.6
20260502032003 10 57 0.0 8.0 0.00 0.00 0.00 70 1013.6
20260502031003 10 58 0.0 6.4 0.00 0.00 0.00 69 1013.6
20260502030003 10 49 0.0 1.6 0.00 0.00 0.00 69 1013.6
20260502025024 11 64 0.0 4.8 0.00 0.00 0.00 68 1013.5
20260502024003 11 8 0.0 3.2 0.00 0.00 0.00 67 1013.3
20260502023003 11 81 0.0 6.4 0.00 0.00 0.00 65 1013.1
20260502022003 12 85 0.0 4.8 0.00 0.00 0.00 63 1012.9
20260502021003 12 102 0.0 8.0 0.00 0.00 0.00 60 1012.6
20260502020003 12 148 0.0 12.9 0.00 0.00 0.00 57 1012.4
20260502015003 13 84 1.6 11.3 0.00 0.00 0.00 55 1011.9
20260502014003 13 46 0.0 19.3 0.00 0.00 0.00 52 1011.7
20260502013003 13 75 0.0 8.0 0.00 0.00 0.00 50 1011.6
20260502012003 13 0 0.0 0.0 0.00 0.00 0.00 50 1011.5
20260502011003 13 178 0.0 3.2 0.00 0.00 0.00 48 1011.6